CANX-4

Satellite information

Favourite Embed

Satellite Type and Status

PAYLOADIN ORBIT

Key statistics

Satellite CANX-4 at a glance.

Uptime

4087

Days in orbit

Revolutions

≈ 14.8

Per day

Orbit

SSO

Sun Synchronous Orbit

Inclination

98.4

Latest

Satellite identification and parameters

Extended collection of information and parameters for CANX-4.

Object identification

Identified? True

Debris? False

Object name: CANX-4

International designator: 2014-034C

Object number (NORAD): 40055

Object ID (CCSDS): 40055

Country: CANADA (CA)

Current information (Y/N): Y

RCS size: MEDIUM

Orbital parameters

Period: 97.27 minutes

Inclination: 98.351 deg

SMA: 7006.173 km

Apoapsis: 636.752 km

Periapsis: 619.324 km

RAAN: 108.9287 deg

Eccentricy: 0.00124372

Argument of periapsis: 196.8438 deg

Mean anomaly: 163.2361 deg

Mean motion: 14.80408247 rev/day

Mean motion (dot): 0.00001796 rev/day2

B* drag term: 0.00024238729 1/REarth

Two-line elements (TLE)

Creation date: Sept. 7, 2025, 3:09 a.m.

Reference frame: TEME

Reference center: EARTH

Epoch: Sept. 6, 2025, 1:43 p.m. UTC

TLE line 0: 0 CANX-4

TLE line 1: 1 40055U 14034C 25249.57160092 .00001796 00000-0 24239-3 0 9994

TLE line 2: 2 40055 98.3510 108.9287 0012437 196.8438 163.2361 14.80408247602551

Live tracking on map

Real-time ground track for satellite CANX-4.

In-orbit conjunctions

There are no conjunctions computed for CANX-4, at the moment. Check back to stay up to date, as we update our databases every day.

Go to all conjunctions

Associated space launch

CANX-4 was lifted into orbit during the mission ‘PSLV-CA | SPOT-7, CanX-4, CanX-5, AISat, VELOX-I’, on board a PSLV space rocket.

The launch took place on June 30, 2014, 4:22 a.m. from Satish Dhawan Space Centre First Launch Pad.

For more information about the launch, click the button.

Launch to space PSLV-CA | SPOT-7, CanX-4, CanX-5, AISat, VELOX-I
PSLV-CA | SPOT-7, CanX-4, CanX-5, AISat, VELOX-I

Agency: N/A

Status: Launch Successful

Launch date: June 30, 2014, 4:22 a.m. UTC

Rocket: PSLV

Launch pad: Satish Dhawan Space Centre First Launch Pad

Location: Satish Dhawan Space Centre, India

...

Latest news about this satellite

There are no fresh news available about this satellite. Check back as we update our databases every day.


Newsletter sign-up

Weekly statistics, charts and insights to help you stay on top of the space industry.